Flag for Germany Weather past 2 weeks in Filderstadt, Baden-Württemberg, Germany

Now
38 °F

Chilly.


Feels Like: 38 °F
Forecast: 35 / 62 °F
Wind: 1 mph from East

Location: Stuttgart-Echterdingen


UV Index: 3 (Moderate)

Visibility: N/A


Pressure: 29.95 "Hg

Humidity: 97%

Dew point: 37 °F

Location of FilderstadtLocation

Historic Weather in Filderstadt

°F

Filderstadt temperature yesterday

Maximum temperature yesterday: 48 °F (at 8:00 AM)
Minimum temperature yesterday: 39 °F (at 10:00 PM)
Average temperature yesterday: 43 °F

Past Weeks' High & Low Weather Summary

 TemperatureHumidityPressure
High70 °F (Apr 7, 4:00 PM)97% (Apr 19, 4:00 AM)30.42 "Hg (Apr 19, 4:00 AM)
Low33 °F (Apr 17, 6:00 AM)25% (Apr 17, 5:00 PM)29.65 "Hg (Apr 4, 4:00 PM)
Average51 °F64%30.09 "Hg
* Reported Apr 4 5:00 AM — Apr 19 5:00 AM, Filderstadt, Weather by CustomWeather, © 2014

Note: Actual official high and low records may vary slightly from our data, if they occured in-between our weather recording intervals... More about our weather records

Advertising

Historic Weather Conditions — Data for Previous 24 hours

 ConditionsComfort  
Time TempWeatherWind HumidityBarometerVisibility
5:00 AM
Apr 19
38 °FChilly.1 mph97%29.95 "HgN/A
4:00 AM38 °FFog.2 mph97%29.96 "Hg3 mi
3:00 AM38 °FOvercast.1 mph95%29.96 "Hg12 mi
2:00 AM38 °FOvercast.1 mph95%29.97 "Hg12 mi
1:00 AM38 °FOvercast.1 mph93%29.98 "Hg12 mi
12:00 AM38 °FOvercast.2 mph91%29.99 "Hg12 mi
11:00 PM
Apr 18
40 °FRain showers. Overcast.1 mph85%30.00 "Hg7 mi
10:00 PM39 °FOvercast.1 mph89%29.99 "Hg19 mi
9:00 PM40 °FOvercast.1 mph86%29.97 "Hg28 mi
8:00 PM40 °FPartly sunny.1 mph85%29.96 "Hg28 mi
7:00 PM41 °FPartly sunny.2 mph82%29.95 "Hg25 mi
6:00 PM43 °FPartly sunny.5 mph76%29.93 "Hg28 mi
5:00 PM43 °FPartly sunny.6 mph71%29.92 "Hg31 mi
4:00 PM43 °FOvercast.3 mph84%29.91 "Hg31 mi
3:00 PM40 °FOvercast.1 mph87%29.94 "Hg19 mi
2:00 PM42 °FLight rain. Overcast.2 mph83%29.93 "Hg12 mi
1:00 PM43 °FLight rain. Overcast.8 mph75%29.93 "Hg12 mi
12:00 PM44 °FQuite cool.7 mph84%29.91 "HgN/A
11:00 AM45 °FLight rain. Overcast.8 mph84%29.90 "Hg3 mi
10:00 AM47 °FOvercast.2 mph77%29.87 "Hg22 mi
9:00 AM47 °FOvercast.2 mph77%29.87 "Hg25 mi
8:00 AM48 °FLight rain. Overcast.2 mph68%29.88 "Hg16 mi
7:00 AM46 °FLight rain. Overcast.1 mph71%29.88 "Hg22 mi
6:00 AM46 °FLight rain. Overcast.1 mph61%29.89 "Hg25 mi
5:00 AM43 °FOvercast.1 mph66%29.91 "Hg31 mi
Weather by CustomWeather, © 2014

See weather overview